TimeCST,TemperatureF,Dew PointF,Humidity,Sea Level PressureIn,VisibilityMPH,Wind Direction,Wind SpeedMPH,Gust SpeedMPH,PrecipitationIn,Events,Conditions,WindDirDegrees,DateUTC
12:15 AM,37.8,37.6,99,30.29,10.0,Calm,Calm,-,N/A,,Clear,0,2012-12-05 06:15:00
12:35 AM,37.6,37.4,99,30.29,10.0,West,3.5,-,N/A,,Clear,260,2012-12-05 06:35:00
12:55 AM,35.2,34.9,99,30.29,10.0,Calm,Calm,-,N/A,,Clear,0,2012-12-05 06:55:00
1:15 AM,36.5,36.1,99,30.30,10.0,Calm,Calm,-,N/A,,Clear,0,2012-12-05 07:15:00
1:35 AM,35.2,34.7,98,30.30,10.0,Calm,Calm,-,N/A,,Clear,0,2012-12-05 07:35:00
1:55 AM,35.6,35.1,98,30.31,10.0,Calm,Calm,-,N/A,,Clear,0,2012-12-05 07:55:00
2:15 AM,33.8,33.4,99,30.31,10.0,Calm,Calm,-,N/A,,Clear,0,2012-12-05 08:15:00
2:35 AM,35.1,35.1,100,30.31,10.0,Calm,Calm,-,N/A,,Clear,0,2012-12-05 08:35:00
2:55 AM,34.7,34.7,100,30.32,7.0,Calm,Calm,-,N/A,,Clear,0,2012-12-05 08:55:00
3:15 AM,35.1,35.1,100,30.32,10.0,NNW,3.5,-,N/A,,Clear,330,2012-12-05 09:15:00
3:35 AM,37.4,36.0,95,30.32,10.0,Calm,Calm,-,N/A,,Clear,0,2012-12-05 09:35:00
3:55 AM,36.7,35.6,96,30.32,10.0,Calm,Calm,-,N/A,,Clear,0,2012-12-05 09:55:00
4:15 AM,40.3,35.6,83,30.33,10.0,NNW,6.9,-,N/A,,Clear,340,2012-12-05 10:15:00
4:35 AM,40.3,34.9,81,30.33,10.0,Calm,Calm,-,N/A,,Clear,0,2012-12-05 10:35:00
4:55 AM,39.2,35.1,85,30.34,10.0,Calm,Calm,-,N/A,,Clear,0,2012-12-05 10:55:00
5:15 AM,40.1,34.7,81,30.34,10.0,Calm,Calm,-,N/A,,Clear,0,2012-12-05 11:15:00
5:35 AM,36.1,32.5,87,30.34,10.0,Calm,Calm,-,N/A,,Clear,0,2012-12-05 11:35:00
5:55 AM,34.9,32.7,92,30.34,10.0,Calm,Calm,-,N/A,,Clear,0,2012-12-05 11:55:00
6:15 AM,33.1,32.0,96,30.36,10.0,Calm,Calm,-,N/A,,Clear,0,2012-12-05 12:15:00
6:35 AM,33.3,32.2,96,30.36,10.0,Calm,Calm,-,N/A,,Clear,0,2012-12-05 12:35:00
6:55 AM,34.5,33.6,97,30.37,10.0,NNW,4.6,-,N/A,,Clear,340,2012-12-05 12:55:00
8:55 AM,43.5,37.4,79,30.40,10.0,North,5.8,-,N/A,,Clear,350,2012-12-05 14:55:00
9:15 AM,44.8,36.0,71,30.40,10.0,NNE,9.2,-,N/A,,Clear,20,2012-12-05 15:15:00
9:35 AM,45.5,35.6,68,30.41,10.0,North,6.9,-,N/A,,Clear,10,2012-12-05 15:35:00
9:55 AM,46.2,35.8,67,30.41,10.0,North,6.9,-,N/A,,Clear,360,2012-12-05 15:55:00
10:15 AM,47.5,36.0,64,30.40,10.0,ENE,5.8,-,N/A,,Clear,60,2012-12-05 16:15:00
10:55 AM,49.1,35.8,60,30.39,10.0,NNE,6.9,-,N/A,,Clear,20,2012-12-05 16:55:00
11:15 AM,49.5,35.6,59,30.38,10.0,North,5.8,-,N/A,,Clear,360,2012-12-05 17:15:00
11:35 AM,50.5,36.0,57,30.37,10.0,NNE,8.1,-,N/A,,Clear,20,2012-12-05 17:35:00
11:55 AM,51.1,36.0,56,30.36,10.0,NNE,5.8,-,N/A,,Clear,20,2012-12-05 17:55:00
12:15 PM,51.4,35.4,54,30.35,7.0,NE,4.6,-,N/A,,Clear,50,2012-12-05 18:15:00
12:35 PM,52.2,36.0,54,30.35,10.0,North,4.6,-,N/A,,Clear,10,2012-12-05 18:35:00
12:55 PM,52.7,33.6,48,30.35,10.0,NNE,4.6,-,N/A,,Clear,20,2012-12-05 18:55:00
1:15 PM,53.1,34.7,50,30.34,10.0,NNE,3.5,-,N/A,,Clear,20,2012-12-05 19:15:00
1:35 PM,53.2,34.9,50,30.33,10.0,NE,5.8,-,N/A,,Clear,50,2012-12-05 19:35:00
1:55 PM,53.1,34.0,48,30.32,10.0,NNE,4.6,-,N/A,,Clear,30,2012-12-05 19:55:00
2:15 PM,53.6,33.6,47,30.31,10.0,NNE,4.6,-,N/A,,Clear,20,2012-12-05 20:15:00
2:35 PM,52.7,32.7,47,30.31,10.0,ENE,6.9,-,N/A,,Clear,70,2012-12-05 20:35:00
2:55 PM,52.3,32.2,46,30.31,10.0,ENE,8.1,-,N/A,,Clear,60,2012-12-05 20:55:00
3:15 PM,51.4,32.0,47,30.31,10.0,NE,5.8,-,N/A,,Clear,50,2012-12-05 21:15:00
3:35 PM,49.5,33.6,54,30.31,10.0,NNE,4.6,-,N/A,,Clear,30,2012-12-05 21:35:00
3:55 PM,48.0,34.0,58,30.31,10.0,NNE,5.8,-,N/A,,Clear,20,2012-12-05 21:55:00
4:15 PM,46.4,32.9,59,30.30,10.0,NNE,5.8,-,N/A,,Clear,20,2012-12-05 22:15:00
4:35 PM,45.1,32.0,60,30.30,10.0,North,5.8,-,N/A,,Clear,10,2012-12-05 22:35:00
4:55 PM,44.1,32.0,63,30.30,10.0,North,6.9,-,N/A,,Clear,360,2012-12-05 22:55:00
5:15 PM,43.5,32.0,64,30.30,10.0,North,8.1,-,N/A,,Clear,10,2012-12-05 23:15:00
5:35 PM,43.0,32.0,65,30.30,10.0,North,6.9,-,N/A,,Clear,10,2012-12-05 23:35:00
5:55 PM,42.4,31.6,66,30.30,10.0,NNE,4.6,-,N/A,,Clear,20,2012-12-05 23:55:00
6:15 PM,40.5,31.6,71,30.30,10.0,Calm,Calm,-,N/A,,Clear,0,2012-12-06 00:15:00
6:35 PM,40.3,31.3,70,30.29,10.0,North,5.8,-,N/A,,Clear,10,2012-12-06 00:35:00
6:55 PM,39.6,31.3,72,30.30,10.0,NNE,5.8,-,N/A,,Clear,20,2012-12-06 00:55:00
7:33 PM,39.2,30.2,70,30.29,10.0,NNE,6.9,-,N/A,,Clear,20,2012-12-06 01:33:00
7:53 PM,39.2,30.2,70,30.28,10.0,NNE,5.8,-,N/A,,Clear,30,2012-12-06 01:53:00
8:14 PM,39.2,30.2,70,30.28,10.0,ENE,6.9,-,N/A,,Clear,60,2012-12-06 02:14:00
8:34 PM,39.2,30.2,70,30.27,10.0,ENE,6.9,-,N/A,,Clear,60,2012-12-06 02:34:00
8:54 PM,39.2,30.2,70,30.27,10.0,ENE,5.8,-,N/A,,Clear,60,2012-12-06 02:54:00
9:14 PM,37.4,30.2,75,30.27,10.0,ENE,5.8,-,N/A,,Clear,60,2012-12-06 03:14:00
9:34 PM,37.4,30.2,75,30.27,10.0,ENE,5.8,-,N/A,,Clear,70,2012-12-06 03:34:00
9:54 PM,37.4,30.2,75,30.26,10.0,ENE,4.6,-,N/A,,Clear,70,2012-12-06 03:54:00
10:15 PM,37.4,30.2,75,30.26,10.0,ENE,5.8,-,N/A,,Clear,70,2012-12-06 04:15:00
10:36 PM,37.4,30.2,75,30.24,10.0,East,5.8,-,N/A,,Clear,80,2012-12-06 04:36:00
10:56 PM,35.6,32.0,87,30.24,10.0,East,5.8,-,N/A,,Clear,80,2012-12-06 04:56:00
11:17 PM,35.6,30.2,81,30.23,10.0,East,4.6,-,N/A,,Clear,80,2012-12-06 05:17:00
11:37 PM,35.6,30.2,81,30.23,10.0,East,4.6,-,N/A,,Clear,80,2012-12-06 05:37:00
11:58 PM,35.6,30.2,81,30.22,10.0,East,4.6,-,N/A,,Clear,80,2012-12-06 05:58:00